Location: Ay?beleni
(36.6500°N, 30.3000°E)
Time: 01:11:39
(UTC+00:00)

Cosmos 2154 Rocket - Pass Details

Date: 09 April 2020
Orbit: 965 x 997 km, 82.9° (Epoch: 24 May)

Event Time Altitude Azimuth Distance (km) Brightness Sun altitude
Rises 17:41:00 0° 355° (N) 3,721 7.4 -14.8°
Reaches altitude 10° 17:43:33 10° 357° (N) 2,766 6.7 -15.3°
Maximum altitude 17:49:54 76° 83° (E) 1,021 3.9 -16.5°
Drops below altitude 10° 17:56:11 10° 169° (S) 2,731 6.0 -17.6°
Enters shadow 17:56:49 - 170° (S) 2,968 6.2 -17.7°
